User: anonymous   Login
Location: Kitchener
(43.2612°N, 80.5078°W)
Time: 17:03:36
(UTC+01:00)
Language:

Iridium 57 - Orbit

View from above orbital plane
View from above orbital plane
View from above satellite
View from above satellite

Ground track
Ground track

The orbit data is extracted from the following two-line orbital elements,

1 25273U 98019B   15087.05791592  .00000224  00000-0  72787-4 0  9998
2 25273 086.3924 266.7393 0002076 093.6880 266.4554 14.34215396889665
Epoch (UTC): 28 March 2015 01:23:23
Eccentricity: 0.0002076
inclination: 86.3924°
perigee height: 776 km
apogee height: 779 km
right ascension of ascending node: 266.7393°
argument of perigee: 93.6880°
revolutions per day: 14.34215396
mean anomaly at epoch: 266.4554°
orbit number at epoch: 88966

The dashed part of the orbit path shows where the satellite is in the earth's shadow,  

DLR